星链-3234 (STARLINK-3234 )

导读

STARLINK-3234是美国太空探索技术公司(SpaceX)星链星座的一颗卫星,于2022年1月6日发射入轨,属于星链星座组网卫星,主要服务于全球卫星宽带互联网项目,为偏远地区、移动载体等场景提供高速互联网接入服务,助力星链系统完成全球覆盖布局,是Starlink批量发射组网中的单元之一。

Basic Information
目录编号:
50815
目录名称:
STARLINK-3234
国际标识:
2022-001N
轨道中心:
EARTH
卫星名称:
星链-3234
卫星全名:
星链-3234 (STARLINK-3234 )
卫星状态:
在轨 (已飞行1624 天)
发射日期:
2022-01-06 UTC
国别 :
美国 (US)
星等 :
--
Orbit Information
数据来源 国际轨道数据 AOE轨道数据
星历时间 2026-06-17T09:51:41+0800
22小时前
查看轨道信息
2026-06-16T23:00:00+0800
1天前
查看轨道信息
半长轴 6917.906km 6917.899km
偏心率 0.0001407 0.0001246
轨道倾角 53.161° 53.160°
近地点辐角 89.889° 104.749°
升交点赤经 82.858° 84.894°
平近点角 270.227° 315.841°
近地点 538.795km 538.9km
远地点 540.743km 540.624km
周期 95.438分钟 95.438分钟
每日圈数 15.088317 15.088342
Detailed Information
固有亮度:
5
最大亮度:
2.5
卫星平台:
Starlink v1.5
覆盖范围:
全球
运营商:
太空探索技术公司
运营商所在国:
美国
制造商(研发单位):
太空探索技术公司
制造商所在国:
美国
使用方式:
暂无
Satellite Introduction
星链(Starlink)计划是由太空探索技术公司(SpaceX)提出的一个巨型低轨卫星互联网星座项目,计划在2019年至2024年间在太空搭建由约1.2万颗卫星组成的“星链”网络,其中1584颗将部署在地球上空550千米处的近地轨道,并从2020年开始工作。该卫星仍在工作。
2D Orbit Map
3D Orbit Map
Orbit Altitude Analysis Chart
Orbit Inclination Analysis Chart
Orbit Comprehensive Analysis Chart
View Comprehensive Chart